TITAN 3C TRANSTAGE DEB, 19592

Orbit data source: Space-Track

TITAN 3C TRANSTAGE DEB, 19592 is space debris in HEO originally from a launch on Tue, 21 Dec 1965 UTC launched from the Air Force Eastern Test Range (AFETR). Debris objects in space refer to the collection of defunct objects orbiting the Earth. Examples of debris include non-operational satellites, rocket bodies, and fragments generated from explosions, collisions, or faulty payload assembly.

Loading next visibility...
Identifier
19592, 1965-108AA
Orbit
HEO
Country
Flag of USUS
Related business
Manufacturer
Unknown
Mission
Spacecraft
Bus & Motor
Unknown
Mass
Unknown
Launch date (UTC)
1965-12-21 (60 years ago)
Launch vehicle
Unknown
Launch site
Air Force Eastern Test Range (AFETR)
Object type
Payload
Rocket body
Debris
Shape & HBR
Unknown shape, 0.3 m
Radar Cross Section
Medium (>0.1 m² and <1 m²)

Expand to show TLE details & history
Last TLE update: 1 day ago

TLE from 1 day ago
0 TITAN 3C TRANSTAGE DEB
1 19592U 65108AA  26171.32480463  .00001119  00000-0  37366-2 0  9992
2 19592  26.5274 190.9575 6746427 262.0427  57.4400  2.84422006345436
Epoch: 2026-06-20T07:47Z
TLE epoch observation values (Epoch: 2026-06-20T07:47:43.120Z)
Latitude
16.22975°
Longitude
-158.87779°
Altitude
16,127.455 km
Speed
4.06 km/s
True Right ascension
15h 06m 22s
True Declination
16° 12' 02"
Sunlit
Object was in daylight at epoch
Visualization orbit readout
Latitude
Unknown
Longitude
Unknown
Altitude
Unknown
Speed
Unknown
Apparent Right ascension
Unknown
Apparent Declination
Unknown
Sunlit
N/A
Visualization observer readout
Local Sidereal Time
00:28:56
Azimuth
Unknown
Elevation
Unknown
Doppler factor
Unknown
Orbital elements
Apogee altitude
28,866.314 km
Perigee altitude
469.317 km
Semi-major axis
21,045.952 km
Eccentricity
0.67464
Inclination
26.5274°
RAAN
190.9575°
Arg. of periapsis
262.0427°
True anomaly
136.63014°
Mean anomaly
57.44°
Eccentric anomaly
95.89011°
Mean motion
0.71087 °/min
Orbital period
506.42 mins
BSTAR
0.0037366
Loading maneuver chart data...
Computing Atmospheric mass density...

Documentation

Showing up to 5 results
|